STARLINK-32674 (62434 NORAD) Tracking and Keplerian Element Data

This shows tracking and keplerian element data for the satellite.

Feedback or suggestion? Click here.




ElementValue
Catalog62434
NameSTARLINK-32674
Epoch Orbit680
Epoch Day35.1362754
Epoch Year2025
RAAN35.3889
Inclination53.1623
Eccentricity0.0001371
Argument of Perigee105.5293
Mean Anonmoly254.5863
Mean Motion15.39598612
Decay Rate0.0001367
L11 62434U 24251C 25035.13627540 .00013670 00000+0 35137-3 0 9994
L22 62434 53.1623 35.3889 0001371 105.5293 254.5863 15.39598612 6800



Live tracking and technical data element details for STARLINK-32674 (NORAD 62434). STARLINK-32674 can be tracked NOW for your location showing map with azimuth and elevation plus other details from your city location.







IsCatalogInMostPopularTable: catalog: 62434, numindb: 14
Update: records affected: 1



GetName: 62434 STARLINK-32674

Hit Count: updated at: Sun, 18 May 2025 23:46:35 GMT